Showing default

QIANFAN-28, 61561

Orbit data source: Space-Track

QIANFAN-28, 61561 is a Chinese payload satellite in LEO that was launched on Tue, 15 Oct 2024 UTC via a CHANG ZHENG 6A launch vehicle from the Taiyaun Space Center, China (TSC). Payload-class satellites include a variety of spacecraft equipped with specific instruments for various scientific and technological missions. These include communications satellites like Starlink; space stations such as the ISS; scientific satellites like the Hubble; Earth observation satellites from companies like Planet Labs, Umbra, and HawkEye 360; GPS; miniature CubeSats for education and research; and military/defense satellites.

Loading next visibility...
Identifier
61561, 2024-185K
Orbit
LEO
Country
Flag of CNCN / PRC
Related business
Manufacturer
GESIH/SECM
Mission
Partially operational Commercial Communications
Bus & Motor
QIANFAN, Unknown motor
Mass
267 kg wet, ~267 kg dry
Launch date (UTC)
2024-10-15 (11 months ago)
Launch vehicle
CHANG ZHENG 6A
Launch site
Taiyaun Space Center, China (TSC)
Object type
Payload
Rocket body
Debris
Shape & HBR
Box + 1 Pan, 5.0 m
Radar Cross Section
13.200 m², Large (>1 m²)

Expand to show TLE details & history
Last TLE update: 10 hours ago

TLE from 10 hours ago
0 QIANFAN-28
1 61561U 24185K   25258.57252977  .00000701  00000-0  27821-3 0  9996
2 61561  88.9756  87.2848 0005944 203.4222 156.6702 14.27752479 57599
Epoch: 2025-09-15T13:44Z
TLE epoch observation values (Epoch: 2025-09-15T13:44:26.572Z)
Latitude
-0.00005°
Longitude
-113.60117°
Altitude
806.236 km
Speed
7.448 km/s
True Right ascension
05h 49m 08s
True Declination
0° 00' 00"
Sunlit
Object was in daylight at epoch
Visualization orbit readout
Latitude
Unknown
Longitude
Unknown
Altitude
Unknown
Speed
Unknown
Apparent Right ascension
Unknown
Apparent Declination
Unknown
Sunlit
N/A
Visualization observer readout
Local Sidereal Time
16:48:08
Azimuth
Unknown
Elevation
Unknown
Doppler factor
Unknown
Orbital elements
Apogee altitude
800.458 km
Perigee altitude
791.929 km
Semi-major axis
7,174.33 km
Eccentricity
0.00059
Inclination
88.9756°
RAAN
87.2848°
Arg. of periapsis
203.4222°
True anomaly
156.69716°
Mean anomaly
156.6702°
Eccentric anomaly
156.68368°
Mean motion
3.57167 °/min
Orbital period
100.79 mins
BSTAR
0.00027821
Loading maneuver chart data...
Computing Atmospheric mass density...
Loading historical data...
Loading historical data...
Loading historical data...
Loading historical data...
Loading historical data...
Loading historical data...
Loading historical data...

Documentation

Showing up to 5 results
|